Weather History for KGOK - September, 2013

Change the Weather History Date:

Monday, September 23, 2013

  Actual Average (KOKC) Record (KOKC)
Temperature  
Mean Temperature 70 °F 71 °F  
Max Temperature 82 °F 82 °F 97 °F (1931)
Min Temperature 57 °F 60 °F 38 °F (1995)
Degree Days  
Heating Degree Days 0 1  
Month to date heating degree days 8  
Since 1 July heating degree days 8  
Cooling Degree Days 4 7  
Month to date cooling degree days 245  
Year to date cooling degree days 1982  
Growing Degree Days 20 (Base 50)    
Moisture  
Dew Point 52 °F    
Average Humidity 54    
Maximum Humidity 77    
Minimum Humidity 35    
Precipitation  
Precipitation 0.00 in 0.14 in 1.47 in (1988)
Month to date precipitation 3.13  
Year to date precipitation 28.02  
Sea Level Pressure  
Sea Level Pressure 29.81 in    
Wind  
Wind Speed 10 mph (SSE)    
Max Wind Speed 15 mph    
Max Gust Speed 24 mph    
Visibility 10 miles    
Events      
T = Trace of Precipitation, MM = Missing Value Source: NWS Daily Summary

Daily Weather History Graph

Daily Weather History Graph

Search for Another Location

Airport or City:

Trip Planner

Search our weather history database for the weather conditions in past years. The results will help you decide how hot, cold, wet, or windy it might be!

Date:

Astronomy

Sep. 23, 2013 Rise Set
Actual Time 7:18 AM CDT 7:24 PM CDT
Civil Twilight 6:53 AM CDT 7:50 PM CDT
Nautical Twilight 6:23 AM CDT 8:19 PM CDT
Astronomical Twilight 5:53 AM CDT 8:49 PM CDT
Moon 10:07 PM CDT (9/23) 11:30 AM CDT (9/23)
Length of Visible Light 12h 57m
Length of Day
12h 06m
Waning Gibbous, 81% of the Moon is Illuminated
Sep 23
Waning Gibbous
Sep 26
Last Quarter
Oct 4
New
Oct 11
First Quarter
Oct 18
Full

Hourly Weather History & Observations

Time (CDT) Temp. Heat Index Dew Point Humidity Pressure Visibility Wind Dir Wind Speed Gust Speed Precip Events Conditions
12:53 AM 63.0 °F - 50.0 °F 63% 29.81 in 10.0 mi SE 8.1 mph - N/A   Clear
1:53 AM 61.0 °F - 50.0 °F 67% 29.81 in 10.0 mi SSE 6.9 mph - N/A   Clear
2:53 AM 61.0 °F - 48.9 °F 64% 29.80 in 10.0 mi SSE 8.1 mph - N/A   Clear
3:53 AM 60.1 °F - 48.9 °F 67% 29.81 in 10.0 mi SSE 5.8 mph - N/A   Clear
4:53 AM 59.0 °F - 50.0 °F 72% 29.81 in 10.0 mi SE 8.1 mph - N/A   Clear
5:53 AM 57.9 °F - 50.0 °F 75% 29.83 in 10.0 mi SE 10.4 mph - N/A   Clear
6:53 AM 57.0 °F - 50.0 °F 77% 29.84 in 10.0 mi SE 8.1 mph - N/A   Clear
7:53 AM 59.0 °F - 51.1 °F 75% 29.85 in 10.0 mi SSE 9.2 mph - N/A   Clear
8:53 AM 63.0 °F - 51.1 °F 65% 29.85 in 10.0 mi SSE 13.8 mph - N/A   Clear
9:53 AM 66.9 °F - 53.1 °F 61% 29.86 in 10.0 mi SSE 11.5 mph - N/A   Clear
10:53 AM 73.0 °F - 52.0 °F 48% 29.84 in 10.0 mi South 13.8 mph 21.9 mph N/A   Clear
11:53 AM 75.9 °F - 52.0 °F 43% 29.83 in 10.0 mi SSW 15.0 mph 20.7 mph N/A   Clear
12:53 PM 80.1 °F - 51.1 °F 36% 29.80 in 10.0 mi South 15.0 mph 21.9 mph N/A   Clear
1:53 PM 80.1 °F - 52.0 °F 38% 29.77 in 10.0 mi SSE 12.7 mph 21.9 mph N/A   Clear
2:53 PM 81.0 °F - 52.0 °F 36% 29.75 in 10.0 mi SSE 13.8 mph 24.2 mph N/A   Clear
3:53 PM 82.9 °F 81.8 °F 53.1 °F 36% 29.73 in 10.0 mi South 13.8 mph 18.4 mph N/A   Mostly Cloudy
4:53 PM 82.0 °F - 52.0 °F 35% 29.74 in 10.0 mi South 13.8 mph - N/A   Clear
5:53 PM 82.0 °F 81.2 °F 53.1 °F 37% 29.76 in 10.0 mi South 10.4 mph - N/A   Clear
6:53 PM 79.0 °F - 54.0 °F 42% 29.77 in 10.0 mi SSE 5.8 mph - N/A   Mostly Cloudy
7:53 PM 73.9 °F - 54.0 °F 50% 29.78 in 10.0 mi SE 5.8 mph - N/A   Partly Cloudy
8:53 PM 72.0 °F - 53.1 °F 51% 29.80 in 10.0 mi SE 5.8 mph - N/A   Clear
9:53 PM 71.1 °F - 53.1 °F 53% 29.82 in 10.0 mi SSE 8.1 mph - N/A   Clear
10:53 PM 71.1 °F - 52.0 °F 51% 29.83 in 10.0 mi SSE 6.9 mph - N/A   Clear
11:53 PM 70.0 °F - 53.1 °F 55% 29.89 in 10.0 mi West 15.0 mph 18.4 mph N/A   Scattered Clouds